Regional Weather Roundup
Issued by NWS State College, PA

Home | Current Version | Previous Version | Text Only | Print | Product List | Glossary On
Versions: 1 2 3 4 5 6 7 8 9 10 11 12 13 14 15 16 17 18 19 20 21 22 23 24 25 26 27 28 29 30 31 32 33 34 35 36 37 38 39 40 41 42 43 44 45 46 47 48 49 50
000
ASUS41 KCTP 290010
RWRCTP

REGIONAL WEATHER ROUNDUP
NATIONAL WEATHER SERVICE STATE COLLEGE PA
800 PM EDT FRI AUG 28 2015

Note: "fair" indicates few or no clouds below 12,000 feet with no
significant weather and/or obstructions to visibility.

* = STATION THAT DOES NOT REPORT PRECIPITATION /E.G. RAIN...SNOW...ETC/
    THUNDER OR FOG.

PAZ002>004-007>009-013>016-020>023-029>032-290100-
WESTERN PENNSYLVANIA

CITY           SKY/WX    TMP DP  RH WIND       PRES   REMARKS
ERIE           PTCLDY    68  56  65 NE3       30.17S
MEADVILLE      PTCLDY    66  57  72 N7        30.18S
FRANKLIN*      PTCLDY    66  55  68 N3        30.20S
NEW CASTLE     FAIR      69  58  68 CALM      30.17R
BEAVER COUNTY  CLEAR     72  54  53 CALM      30.17R
BUTLER*        PTCLDY    66  55  68 CALM      30.18S
PITTSBURGH INT MOCLDY    75  53  46 N6        30.15S
PITTSBURGH     CLEAR     75  45  34 S3        30.15S
INDIANA*       CLEAR     70  57  64 CALM      30.20R
LATROBE        PTCLDY    72  55  56 CALM      30.16S
WASHINGTON CO* PTCLDY    64  57  77 CALM      30.16S
$$

PAZ004>006-010>012-017>019-024>028-033>037-041-042-045-046-049>053-290100-
CENTRAL PENNSYLVANIA

CITY           SKY/WX    TMP DP  RH WIND       PRES   REMARKS
BRADFORD       PTCLDY    62  55  77 CALM      30.21R
DUBOIS         CLEAR     67  53  61 CALM      30.19R
CLEARFIELD     CLEAR     65  57  75 N7        30.18F
JOHNSTOWN      CLEAR     68  52  56 CALM      30.20S
ALTOONA        CLEAR     65  56  72 SE3       30.18S
STATE COLLEGE  CLEAR     68  57  68 CALM      30.18R
WILLIAMSPORT   CLEAR     69  59  70 CALM      30.15R
SELINSGROVE    CLEAR     65  62  90 CALM      30.17R
FT INDIANTOWN  CLEAR     67  59  73 CALM      30.16R
CAPITAL CITY   CLEAR     71  60  68 SW3       30.16R
HARRISBURG     PTCLDY    74  59  59 CALM      30.15R
YORK           CLEAR     66  62  87 CALM      30.16R
$$

PAZ038>040-043-044-047-048-054-055-060>062-067>071-290100-
EASTERN PENNSYLVANIA

CITY           SKY/WX    TMP DP  RH WIND       PRES   REMARKS
SCRANTON       CLOUDY    69  56  62 CALM      30.18R
MOUNT POCONO   CLEAR     61  53  75 CALM      30.21S
ALLENTOWN      CLEAR     72  55  55 CALM      30.15S
QUAKERTOWN*    PTCLDY    72  59  64 CALM      30.17R
READING        CLEAR     73  55  53 CALM      30.15R
LANCASTER      CLEAR     71  58  63 CALM      30.16R
COATESVILLE    CLEAR     70  57  64 CALM      30.18R
POTTSTOWN      CLEAR     71  58  63 CALM      30.17R
BLUE BELL      CLEAR     64  61  88 CALM      30.15R
DOYLESTOWN     CLEAR     69  57  65 CALM      30.15R
WILLOW GROVE   NOT AVBL
NORTH PHILA    CLEAR     76  52  43 NE5       30.16R
PHILADELPHIA   PTCLDY    80  52  37 NW7       30.15R
$$


USA.gov is the U.S. government's official web portal to all federal, state and local government web resources and services.